Regional Weather Roundup
Issued by NWS

Home | Current Version | Previous Version | Graphics & Text | Print | Product List | Glossary Off
Versions: 1 2 3 4 5 6 7 8 9 10 11 12 13 14 15 16 17 18 19 20 21 22 23 24 25 26 27 28 29 30 31 32 33 34 35 36 37 38 39 40 41 42 43 44 45 46 47 48 49 50

000
ASUS43 KMPX 010801
RWRMN
WEATHER ROUNDUP FOR MINNESOTA
NATIONAL WEATHER SERVICE TWIN CITIES/CHANHASSEN MN
300 AM CDT MON SEP 01 2014


NOTE: "FAIR" INDICATES FEW OR NO CLOUDS BELOW 12,000 FEET WITH NO
SIGNIFICANT WEATHER AND/OR OBSTRUCTIONS TO VISIBILITY. N/A MEANS
CURRENT SKY AND/OR WEATHER CONDITIONS ARE NOT AVAILABLE.

MNZ060>063-068>070-010900-
   Twin Cities Metro

CITY           SKY/WX    TMP DP  RH WIND       PRES   REMARKS
TWIN CITIES    LGT RAIN  65  64  97 S7        29.64S
ST PAUL        LGT RAIN  66  64  93 S6        29.65R
CRYSTAL        CLOUDY    67  63  87 S9        29.62S
BLAINE         CLOUDY    66  66 100 S8        29.63F
LAKEVILLE      CLOUDY    63  63 100 CALM      29.66R
EDEN PRAIRIE   LGT RAIN  66  64  93 S8        29.63S
SOUTH ST PAUL  CLOUDY    66  64  92 SW5       29.65R
LAKE ELMO      DRIZZLE   64  64 100 S10       29.65S
$$
MNZ001>005-007-008-013>017-022>024-027-028-010900-
   Northwest Minnesota

CITY           SKY/WX    TMP DP  RH WIND       PRES   REMARKS
BEMIDJI        CLOUDY    56  56  99 W5        29.63F
HALLOCK        PTCLDY    55  54  94 CALM      29.66R
ROSEAU         CLOUDY    61  55  82 NW6       29.63S
WARROAD        CLOUDY    57  54  88 W7        29.63R
THIEF RVR FALL CLOUDY    57  55  94 NW13      29.65S
CROOKSTON      CLEAR     55  54  94 NW6       29.66F
FOSSTON        FOG       50  48  93 CALM      29.65F VSB 1/4
DETROIT LAKES  PTCLDY    59  55  88 NW7       29.66S
MOORHEAD       PTCLDY    59  59 100 NW7       29.66S
PARK RAPIDS    MOCLDY    57  57 100 NW3       29.64F
MAHNOMEN       PTSUNNY   55  54  99 CALM      29.64F FOG
$$
MNZ006-009>011-018-025>026-010900-
   North Central Minnesota

CITY           SKY/WX    TMP DP  RH WIND       PRES   REMARKS
BAUDETTE       CLOUDY    60  57  89 VRB3      29.61R
FLAG ISLAND    CLOUDY    61  57  88 NW14      29.58R
INTL FALLS     CLOUDY    60  58  92 W6        29.58S
WASKISH        CLOUDY    61  57  88 W7        29.62S
BIG FORK       CLOUDY    61  57  88 CALM      29.63R
LONGVILLE      CLOUDY    61  59  94 CALM      29.63S
GRAND RAPIDS   CLOUDY    64  61  88 NW7       29.62S
CRANE LAKE     CLOUDY    61  59  94 CALM      29.59S
ORR            CLOUDY    61  57  88 CALM      29.57S
COOK           LGT RAIN  63  61  94 SW5       29.60S
WALKER         FAIR      58  58  98 CALM      29.63F
$$
MNZ012-019>021-037-010900-
   Northeast Minnesota

CITY           SKY/WX    TMP DP  RH WIND       PRES   REMARKS
DULUTH         LGT RAIN  64  62  93 W5        29.59F
ELY            LGT RAIN  63  63 100 W3        29.59R
HIBBING        CLOUDY    64  62  93 W3        29.60F
EVELETH        CLOUDY    63  61  94 CALM      29.61S
DULUTH HARBOR  LGT RAIN  63  61  94 SW6       29.57F
TWO HARBORS    LGT RAIN  63  57  82 CALM      29.56F
SILVER BAY     HVY RAIN  61  61 100 CALM      29.55F
GRAND MARAIS     N/A     62  61  96 CALM      29.57S
G MARAIS ARPRT LGT RAIN  63  59  88 S7        29.61S
$$
MNZ029>031-032-039>041-046>048-054>057-064-010900-
   West Central Minnesota

CITY           SKY/WX    TMP DP  RH WIND       PRES   REMARKS
FERGUS FALLS   MOCLDY    59  59 100 CALM      29.67R FOG
WHEATON        CLOUDY    59  57  94 CALM      29.70R
MORRIS         CLOUDY    63  63 100 SW5       29.67R
ALEXANDRIA     CLOUDY    64  63  96 W6        29.67S
ELBOW LAKE     FAIR      61  61  99 NW6       29.67R FOG
WADENA         MOCLDY    61  59  94 CALM      29.64S
GLENWOOD       MOCLDY    64  63  94 W5        29.67R
APPLETON       RAIN      64  61  88 W6        29.67R
BENSON         MOCLDY    63  61  94 W3        29.67S
ORTONVILLE     CLOUDY    64  61  88 W5        29.69R
MADISON        MOCLDY    66  63  88 W8        29.69R
WILLMAR        MOCLDY    66  63  88 W6        29.67S
$$
MNZ033>034-036-042>043-049>051-058-059-010900-
   Central Minnesota

CITY           SKY/WX    TMP DP  RH WIND       PRES   REMARKS
ST CLOUD       CLOUDY    68  65  90 SW5       29.62S
SAUK CENTRE    FAIR      64  63  94 W6        29.65R
PAYNESVILLE    CLOUDY    62  62  99 SW5       29.65R
AITKIN         MIX PCPN  66  61  82 CALM      29.60F
PINE RIVER     MOCLDY    63  63 100 CALM      29.67S
BRAINERD       CLOUDY    65  63  93 NW6       29.62F
STAPLES        CLOUDY    63  61  94 NW5       29.63S
LONG PRAIRIE   FAIR      63  63 100 W6        29.65R
LITTLE FALLS   CLOUDY    64  63  94 CALM      29.63S
LITCHFIELD     CLOUDY    66  66 100 W6        29.66R
BUFFALO        CLOUDY    65  62  92 SW3       29.65R
MAPLE LAKE     CLOUDY    65  64  97 CALM      29.65R
$$
MNZ037-044-045-052-053-010900-
   East Central Minnesota

CITY           SKY/WX    TMP DP  RH WIND       PRES   REMARKS
PRINCETON      CLOUDY    66  64  94 S3        29.62F
MORA           CLOUDY    61  61 100 SW5       29.63S FOG
CAMBRIDGE      CLOUDY    66  59  77 SW3       29.61S
RUSH CITY      LGT RAIN  64  63  95 CALM      29.62S
MOOSE LAKE     LGT RAIN  64  63  94 CALM      29.58F
HINCKLEY       CLOUDY    64  64 100 CALM      29.61S
CLOQUET        LGT RAIN  64  63  94 W3        29.60S
MCGREGOR       CLOUDY    64  63  94 NW6       29.61F
$$
MNZ071>073-080-081-089-090-097-098-010900-
   Southwest Minnesota

CITY           SKY/WX    TMP DP  RH WIND       PRES   REMARKS
MONTEVIDEO     MOCLDY    63  63 100 NW5       29.68R
GRANITE FALLS  MOCLDY    61  60  97 SW5       29.69R
CANBY          MOCLDY    64  62  93 NW10      29.70R
MARSHALL       CLOUDY    63  59  88 W7        29.69R
REDWOOD FALLS  CLOUDY    67  65  93 NW9       29.66R THUNDER
OLIVIA         TSTM      66  64  94 SW7       29.66R
PIPESTONE      CLOUDY    63  61  94 NW5       29.72R
WINDOM         RAIN      66  64  94 SW3       29.69R
WORTHINGTON    MOCLDY    64  63  94 NW7       29.70S
JACKSON        CLOUDY    64  61  88 S7        29.69S
TRACY          CLOUDY    66  64  93 CALM      29.70R THUNDER
SLAYTON        LGT RAIN  63  62  99 CALM      29.71S
$$
MNZ065>067-074>077-082>085-091>093-010900-
   South Central Minnesota

CITY           SKY/WX    TMP DP  RH WIND       PRES   REMARKS
MANKATO        CLOUDY    64  59  82 S9        29.66S
NEW ULM        RAIN      64  64 100 S10       29.66R
ST JAMES       CLOUDY    64  63  94 S8        29.67S
FAIRMONT       CLOUDY    64  59  82 SW7       29.68R
GLENCOE        CLOUDY    66  63  90 S7        29.64R
FARIBAULT      CLOUDY    66  63  88 S8        29.67R
OWATONNA       CLOUDY    64  63  94 S7        29.68R
WASECA         CLOUDY    61  55  82 S7        29.69R
ALBERT LEA     CLOUDY    64  63  94 S10G18    29.68R
$$
MNZ078>079-086>088-094>096-010900-
   Southeast Minnesota

CITY           SKY/WX    TMP DP  RH WIND       PRES   REMARKS
ROCHESTER      CLOUDY    64  61  90 S9        29.69S
RED WING       CLOUDY    66  64  94 CALM      29.65S
STANTON        CLOUDY    66  62  87 S6        29.65R
DODGE CENTER   CLOUDY    64  63  94 S10       29.68R
WINONA         CLOUDY    68  63  83 SE8       29.65F
AUSTIN         CLOUDY    64  63  94 S10       29.69R
PRESTON        CLOUDY    63  63 100 CALM      29.70R
$$
ABBREVIATIONS USED IN REMARKS
   TC - TEMPERATURES IN CELSIUS
  WCI - WIND CHILL INDEX
   HX - HEAT INDEX
  VSB - VISIBILITY
$$


USA.gov is the U.S. government's official web portal to all federal, state and local government web resources and services.